CDT,Max TemperatureF,Mean TemperatureF,Min TemperatureF,Max Dew PointF,MeanDew PointF,Min DewpointF,Max Humidity, Mean Humidity, Min Humidity, Max Sea Level PressureIn, Mean Sea Level PressureIn, Min Sea Level PressureIn, Max VisibilityMiles, Mean VisibilityMiles, Min VisibilityMiles, Max Wind SpeedMPH, Mean Wind SpeedMPH, Max Gust SpeedMPH,PrecipitationIn, CloudCover, Events, WindDirDegrees
2013-3-1,28,22,15,18,14,10,80,71,59,30.33,30.29,30.20,10,10,10,12,8,,0.00,5,,19
2013-3-2,24,12,0,10,7,-4,92,71,40,30.33,30.26,30.16,10,10,7,5,1,,0.00,1,,112
2013-3-3,30,19,8,14,10,5,92,66,40,30.15,30.05,29.97,10,10,10,13,4,,0.00,2,,109
2013-3-4,24,22,19,21,18,12,100,84,59,30.02,29.96,29.92,10,6,0,18,10,24,0.00,8,Snow,102
2013-3-5,26,24,19,23,21,16,100,89,80,30.28,30.07,29.95,10,5,0,14,7,22,0.00,7,Snow,27
2013-3-6,28,14,1,18,14,-2,100,81,64,30.40,30.35,30.28,10,9,1,13,6,,0.00,6,Snow,323
2013-3-7,28,13,-2,18,8,-4,93,84,64,30.37,30.33,30.27,10,6,0,12,2,,0.00,2,Fog-Snow,123
2013-3-8,35,22,8,28,20,7,100,85,70,30.31,30.23,30.08,7,6,2,13,5,18,0.00,0,,124
2013-3-9,35,34,32,34,33,27,100,95,75,30.08,29.82,29.69,7,3,0,14,8,18,0.00,8,Fog-Rain,145
2013-3-10,33,30,26,34,29,27,100,88,80,29.92,29.85,29.75,10,7,1,22,13,31,0.00,8,Rain-Snow,4
2013-3-11,28,24,19,27,21,16,100,81,69,29.84,29.78,29.73,10,9,1,15,11,20,0.00,7,Snow,325
2013-3-12,26,22,17,19,15,9,86,75,59,30.17,29.94,29.82,10,8,1,24,11,30,0.00,6,Snow,296
2013-3-13,28,18,8,18,12,7,92,75,55,30.37,30.30,30.18,10,10,10,13,8,,0.00,0,,272
2013-3-14,35,28,21,27,21,18,100,84,65,30.24,30.14,30.08,10,8,1,9,6,,0.00,5,Snow,135
2013-3-15,32,29,24,30,28,25,100,94,87,29.93,29.87,29.80,10,4,1,14,7,,0.00,8,Rain,51
2013-3-16,24,17,10,25,14,7,100,79,59,30.21,30.06,29.87,10,10,4,16,10,16,0.00,3,,324
2013-3-17,26,16,5,19,8,0,80,67,54,30.25,30.10,29.87,10,10,10,15,9,21,0.00,3,,99
2013-3-18,28,19,10,27,16,5,100,83,68,29.85,29.69,29.59,10,4,1,30,17,36,0.00,8,Snow,233
2013-3-19,19,11,3,7,2,-2,85,68,49,30.18,30.02,29.81,10,10,7,25,19,31,0.00,1,,283
2013-3-20,17,10,3,5,0,-6,79,64,53,30.20,30.15,30.10,10,10,10,22,16,29,0.00,0,,288
2013-3-21,24,10,-5,10,3,-8,92,68,46,30.11,30.07,30.02,10,10,10,8,3,,0.00,0,,260
2013-3-22,30,15,0,16,8,-2,92,68,44,30.09,30.06,30.03,10,10,10,7,2,,0.00,0,,256
2013-3-23,33,22,10,19,16,9,92,69,44,30.14,30.10,30.06,10,10,7,9,3,,0.00,0,,276
2013-3-24,30,26,21,23,20,19,93,76,64,30.09,30.01,29.96,10,10,5,15,7,20,0.00,6,Snow,358
2013-3-25,35,28,21,19,17,16,80,65,48,30.21,30.10,30.02,10,10,10,15,10,22,0.00,1,,334
2013-3-26,35,28,21,21,19,18,93,74,52,30.29,30.26,30.21,10,10,10,10,7,,0.00,5,,271
2013-3-27,37,24,12,23,17,10,100,71,38,30.34,30.31,30.29,10,9,7,6,1,,0.00,0,,174
2013-3-28,37,24,12,27,20,10,100,77,48,30.34,30.31,30.27,10,9,5,8,1,,0.00,1,,144
2013-3-29,42,32,21,34,28,21,100,82,61,30.28,30.21,30.07,10,8,5,9,2,,0.00,4,Rain,128
2013-3-30,46,40,33,39,35,30,100,86,75,30.06,29.90,29.85,10,7,2,12,6,16,0.00,4,Rain-Thunderstorm,234
2013-3-31,35,29,23,30,24,16,100,77,48,30.07,29.88,29.80,10,7,1,25,13,31,0.00,4,,290